www.pogodaiklimat.ru
ПОГОДА в Мэривилле
Время
и дата
06:35 06.02
06:55 06.02
07:15 06.02
07:35 06.02
07:55 06.02
08:15 06.02
08:35 06.02
08:55 06.02
09:15 06.02
09:35 06.02
09:55 06.02
10:15 06.02
10:35 06.02
10:55 06.02
11:15 06.02
11:35 06.02
11:55 06.02
12:15 06.02
12:35 06.02
12:55 06.02
13:15 06.02
13:35 06.02
13:55 06.02
14:15 06.02
14:35 06.02
14:55 06.02
15:15 06.02
15:35 06.02
15:55 06.02
16:15 06.02
16:35 06.02
16:55 06.02
17:15 06.02
17:35 06.02
17:55 06.02
18:15 06.02
18:35 06.02
18:55 06.02
19:15 06.02
19:35 06.02
19:55 06.02
20:15 06.02
20:35 06.02
20:55 06.02
21:15 06.02
21:35 06.02
21:55 06.02
22:15 06.02
Ветер
(напр.,м/с)
Видим. Явления Облачность Т
(С)
Тd
(С)
f
(%)
Тe
(С)
Тes
(С)
Комфортность P
(гПа)
Po
(гПа)
Тmin
(С)
Tmax
(С)
R
(мм)
R24
(мм)
S
(см)
ЮВ 5
{10}
16 км ясно +2.3 -0.8 80 -3 -3 971.0
ЮВ 7
{9}
16 км ясно +2.6 -0.8 78 -4 -4 970.3
ЮВ 7
{10}
16 км ясно +3.0 -0.7 77 -3 -3 969.7
ЮВ 6
{9}
16 км ясно +3.1 -0.8 76 -2 -2 969.7
ЮВ 6
{9}
16 км ясно +3.2 -0.7 76 -2 -2 969.3
ЮВ 8
{11}
16 км ясно +3.5 -0.6 75 -3 -3 968.4
ЮВ 7 16 км ясно +4.1 -0.4 72 -2 -1 967.7
ЮВ 9
{11}
16 км ясно +5.2 0.0 69 -1 -1 967.1
ЮВ 10
{12}
16 км ясно +7.1 +0.6 63 +2 +2 966.4
ЮВ 9
{11}
16 км ясно +8.0 +1.6 64 +3 +3 966.1
ЮВ 9
{13}
16 км ясно +9.4 +2.6 62 +5 +5 965.4
ЮВ 10
{12}
16 км ясно +9.4 +2.9 64 +5 +5 964.8
Ю 7
{12}
16 км ясно +11.6 +4.5 62 +9 +10 965.1
Ю 10
{13}
16 км ясно +12.1 +5.1 62 +9 +9 965.1
ЮВ 9 16 км ясно +13.0 +5.6 61 +10 +11 964.1
Ю 12
{15}
16 км ясно +14.5 +6.8 60 +12 +12 964.1
Ю 7
{13}
16 км ясно +14.8 +6.8 59 +13 +15 963.8
Ю 13
{16}
16 км ясно +16.3 +7.5 56 +14 +14 962.8
Ю 11
{14}
16 км ясно +17.1 +7.8 54 +15 +16 962.2
Ю 12
{16}
16 км ясно +17.7 +8.0 53 +16 +16 961.5
Ю 14
{16}
16 км ясно +18.3 +8.3 52 +17 +17 960.9
Ю 11
{15}
16 км ясно +18.7 +8.7 52 +18 +18 960.6
ЮЗ 10
{15}
16 км 5/5 1230 м +19.4 +9.0 51 +19 +20 960.9
ЮЗ 12
{15}
16 км 5/5 1290 м +19.9 +8.6 48 +20 +20 960.6
ЮЗ 12
{17}
16 км 5/5 1380 м +19.4 +8.6 50 +19 +19 960.6
ЮЗ 9
{13}
16 км 8/8 1380 м +19.2 +8.7 51 +19 +19 960.6
ЮЗ 11
{15}
16 км 5/5 1380 м +20.0 +7.9 46 +20 +20 960.6
ЮЗ 11
{15}
16 км 5/5 1440 м +19.2 +8.0 48 +19 +19 960.9
Ю 9
{14}
16 км 8/8 1440 м +19.0 +8.2 49 +19 +19 960.6
ЮЗ 8 16 км 5/5 1440 м +18.5 +8.1 51 +18 +18 960.6
ЮЗ 8
{11}
16 км ясно +18.6 +8.1 50 +18 +18 960.6
ЮЗ 8
{10}
16 км ясно +18.2 +7.2 49 +17 +18 961.2
ЮЗ 6 16 км ясно +17.5 +7.0 50 +17 +17 961.5
З 11
{13}
16 км ясно +16.5 +5.8 49 +15 +15 962.2
З 9
{12}
16 км ясно +12.0 +6.0 67 +9 +9 963.2
З 7 16 км ясно +10.6 +5.5 71 +7 +7 963.5
З 10
{12}
16 км ясно +10.0 +5.4 73 +6 +6 964.1
З 9
{13}
16 км ясно +8.6 +4.3 74 +4 +4 964.8
З 8
{11}
16 км ясно +7.6 +3.6 76 +3 +3 965.4
З 5 16 км ясно +6.6 +3.2 79 +3 +3 965.8
З 5 16 км ясно +6.0 +2.9 80 +2 +2 965.8
З 5 16 км ясно +5.5 +2.6 82 +1 +1 966.1
З 6 16 км ясно +5.4 +2.5 82 0 0 966.4
З 6 16 км ясно +5.1 +2.2 82 0 0 967.1
З 4 16 км ясно +4.7 +1.4 79 +1 +1 967.7
З 5 16 км ясно +4.0 +0.8 80 -1 -1 968.0
З 5 16 км ясно +3.6 +0.6 81 -1 -1 968.4
З 5 16 км ясно +3.4 +0.7 82 -2 -2 969.0
Местоположение метеостанции Maryville Northwest Missouri Regional Airport: широта 40.3520 долгота -94.9150 высота над уровнем моря 351 м.
В архиве по умолчанию представлена погода в Мэривилле за последние 1-2 суток. Обновление информации о фактической погоде в базе происходит ежечасно! Архивные данные за месяц целиком и за предыдущие месяцы Вы можете получить, выбрав интересующий диапазон дат из раскрывающегося списка и нажав кнопку "Ввод!".
Внимание! Архив погоды МЕТАР в базе сайта по станциям, не включенным в климатический монитор, хранится не более 60 дней. Нет смысла пытаться выбрать более раннюю дату.
*Определитесь, кто Вы:
Внимание! Время в таблицах - местное (без учета летнего времени). Для получения всемирного времени необходимо вычесть поправку, которая равна -6 ч.
Смотрите также архив погоды в соседних городах и на ближайших метеорологических станциях:
Партнеры нашего сайта:      
Пояснения к столбцам:
  • Ветер - указаны скорость ветра в м/с - средняя за 10 мин, порывы в срок и между сроками (в фигурных скобках) и направление, откуда дует ветер: С - северный,
  • СВ - северо-восточный, В - восточный, ЮВ - юго-восточный, Ю - южный, ЮЗ - юго-западный, З - западный, СЗ - северо-западный.
  • Видимость - горизонтальная дальность видимости в метрах или километрах. При видимости от 1 до 10 км при отсутствии осадков обычно наблюдается дымка, при ухудшении видимости до 1 км и менее - туман. В сухую погоду видимость может ухудшаться дымом, пылью или мглою.
  • Явления - указаны атмосферные явления, наблюдавшиеся в срок или в последний час перед сроком; фигурными скобками обозначены явления, наблюдавшиеся между сроками (за 1-3 часа до срока); квадратными скобками обозначены град или гололедные отложения с указанием их диаметра в мм.
  • Облачность - указаны через наклонную черту общая и нижняя облачность в баллах и высота нижней границы облаков в метрах; квадратными скобками обозначены формы облаков: Ci - перистые, Cs - перисто-слоистые, Cc - перисто-кучевые, Ac - высококучевые, As - высокослоистые, Sc - слоисто-кучевые, Ns - слоисто-дождевые, Cu - кучевые, Cb - кучево-дождевые. Подробнее классификацию облаков см. в Атласе облаков (PDF).
  • T - Температура воздуха - температура, измеренная на высоте 2 м над землей.
  • Td - Температура точки росы - температура, при понижении до которой содержащийся в воздухе водяной пар достигнет насыщения.
  • f - Относительная влажность воздуха - влажноcть воздуха, измеренная на высоте 2 м над землей.
  • Te - Эффективная температура - температура, которую ощущает одетый по сезону человек в тени. Характеристика душности погоды. При расчете учитывается влияние влажности воздуха и скорости ветра на теплоощущения человека.
  • Tes - Эффективная температура на солнце - температура, которую ощущает человек, с поправкой на солнечный нагрев. Характеристика знойности погоды. Зависит от высоты солнца над горизонтом, облачности и скорости ветра. Ночью, в пасмурную погоду, а также при ветре 12 м/с и более поправка равна нулю.
  • P - Атмосферное давление - приведенное к уровню моря атмосферное давление.
  • Po - Атмосферное давление - измеренное на уровне метеостанции атмосферное давление.
  • Tmin - Минимальная температура - минимум температуры воздуха на высоте 2 м над землей.
  • Tmax - Максимальная температура - максимум температуры воздуха на высоте 2 м над землей.
  • R - Количество осадков - Количество выпавших осадков за период времени, мм. При наведении курсора мыши на число - период времени, за который выпало указанное количество осадков.
  • R24 - Количество осадков - Количество выпавших осадков за 24 часа, мм.
  • S - Снежный покров - Высота снежного покрова, см. При наведении курсора мыши на число - состояние снежного покрова и степень покрытия местности в баллах.